Location: North Evanston
(42.0634°N, 87.6976°W)
Time: 04:53:47
(UTC+00:00)

Vanguard 3 - Pass Details

Date: 19 May 2026
Orbit: 507 x 3204 km, 33.3° (Epoch: 8 June)

Event Time Altitude Azimuth Distance (km) Brightness Sun altitude
Rises 01:32:57 0° 280° (W) 6,987 13.4 -4.9°
Reaches altitude 10° 01:39:54 10° 266° (W) 5,646 12.3 -5.9°
Maximum altitude 01:49:35 19° 230° (SW) 4,240 11.0 -7.4°
Drops below altitude 10° 01:57:06 10° 191° (S) 4,217 10.5 -8.5°
Sets 02:01:15 0° 173° (S) 4,744 10.7 -9.2°
